W5TTY Weather Reports


time (UTC)temp
C
wind
direction
speed
KPH
gust
KPH
rain 1hr
cm
rain 24hr
cm
rain mn
cm
humidity
%
barometer
mb
20260502211844 22 288 8.0 24.1 0.00 1.04 0.23 94 1019.1
20260502211328 22 336 9.7 24.1 0.00 1.04 0.23 94 1019.1
20260502210818 22 336 9.7 16.1 0.00 1.04 0.23 94 1019.2
20260502210345 22 22 3.2 9.7 0.00 1.04 0.23 94 1019.3
20260502205829 22 67 6.4 19.3 0.00 1.04 0.23 94 1019.3
20260502205405 22 42 8.0 19.3 0.00 1.19 0.23 94 1019.5
20260502204829 22 44 8.0 22.5 0.00 1.19 0.23 95 1019.5
20260502204357 22 5 14.5 20.9 0.00 1.19 0.23 95 1019.4
20260502203824 22 24 8.0 14.5 0.00 1.19 0.23 95 1019.4
20260502203330 22 57 8.0 14.5 0.00 1.19 0.23 95 1019.4
20260502202326 22 70 4.8 17.7 0.00 1.19 0.23 95 1019.5
20260502201829 21 360 14.5 20.9 0.00 1.19 0.23 95 1019.6
20260502201335 21 28 6.4 22.5 0.00 1.19 0.23 95 1019.6
20260502200823 21 56 4.8 22.5 0.00 1.19 0.23 96 1019.6
20260502200324 21 340 11.3 24.1 0.00 1.19 0.23 96 1019.6
20260502195830 21 314 11.3 24.1 0.00 1.19 0.23 95 1019.6
20260502195402 21 42 6.4 19.3 0.00 1.40 0.23 96 1019.7
20260502194829 21 52 4.8 19.3 0.00 1.40 0.23 96 1019.7
20260502194329 21 52 4.8 19.3 0.00 1.40 0.23 96 1019.8
20260502193833 21 17 8.0 16.1 0.00 1.40 0.23 96 1019.9
20260502193317 21 321 4.8 16.1 0.00 1.40 0.23 96 1019.9
20260502192822 21 324 11.3 20.9 0.00 1.40 0.23 96 1019.9
20260502192326 21 355 14.5 20.9 0.00 1.40 0.23 96 1020.1
20260502191841 21 69 9.7 24.1 0.00 1.40 0.23 96 1020.0
20260502191327 21 329 9.7 24.1 0.00 1.40 0.23 96 1020.1
20260502190829 20 44 11.3 20.9 0.00 1.40 0.23 96 1020.2
20260502190318 21 5 8.0 19.3 0.00 1.40 0.23 96 1020.2
20260502185824 21 28 6.4 22.5 0.00 1.40 0.23 96 1020.3
20260502185327 20 309 14.5 24.1 0.00 1.63 0.23 96 1020.4
20260502184834 20 355 12.9 27.4 0.00 1.63 0.23 96 1020.5
20260502184346 20 360 11.3 27.4 0.00 1.63 0.23 96 1020.6
20260502183850 20 355 9.7 20.9 0.00 1.63 0.23 96 1020.7
20260502183333 20 55 8.0 19.3 0.00 1.63 0.23 96 1020.7
20260502182819 20 24 8.0 24.1 0.00 1.63 0.23 96 1020.8
20260502182324 20 355 12.9 24.1 0.00 1.63 0.23 96 1021.0
20260502181826 20 320 14.5 22.5 0.00 1.63 0.23 96 1021.0
20260502181338 20 12 9.7 22.5 0.00 1.63 0.23 96 1021.0
20260502180842 20 360 9.7 20.9 0.00 1.63 0.23 96 1021.1
20260502180327 20 325 6.4 22.5 0.00 1.63 0.23 96 1021.1
20260502170321 18 325 11.3 20.9 0.00 1.85 0.23 96 1021.7
20260502164318 17 20 8.0 20.9 0.00 2.13 0.23 97 1021.8
20260502163831 17 341 11.3 20.9 0.00 2.13 0.23 97 1021.9
20260502163337 17 343 9.7 19.3 0.00 2.13 0.23 97 1021.8
20260502162824 17 35 8.0 16.1 0.00 2.13 0.23 97 1021.7
20260502162324 17 13 4.8 22.5 0.00 2.13 0.23 97 1021.7
20260502161851 17 12 16.1 22.5 0.00 2.13 0.23 97 1021.8
20260502161335 17 324 11.3 19.3 0.00 2.13 0.23 97 1021.8
20260502160820 16 11 9.7 20.9 0.00 2.13 0.23 97 1021.8
20260502160352 16 9 9.7 20.9 0.00 2.13 0.23 96 1021.8
20260502152326 16 12 8.0 16.1 0.00 2.44 0.23 97 1021.8
20260502151832 15 360 6.4 16.1 0.00 2.44 0.23 97 1021.8
20260502151406 15 360 9.7 17.7 0.00 2.44 0.23 97 1021.8
20260502150827 15 320 8.0 19.3 0.00 2.44 0.23 97 1021.8
20260502150330 15 344 12.9 20.9 0.00 2.44 0.23 97 1021.8
20260502130332 11 323 1.6 8.0 0.00 3.05 0.23 96 1020.5
20260502045820 11 54 9.7 17.7 0.08 3.96 0.00 95 1017.2
20260502045323 11 46 9.7 17.7 0.05 3.99 3.94 95 1017.3
20260502044834 11 39 6.4 14.5 0.05 3.99 3.94 95 1017.3
20260502044340 11 38 8.0 12.9 0.08 3.99 3.94 95 1017.3
20260502043827 11 5 6.4 12.9 0.08 3.99 3.94 95 1017.2
20260502043333 11 19 6.4 12.9 0.08 3.99 3.94 95 1017.3
20260502042822 11 13 6.4 12.9 0.05 3.96 3.91 95 1017.3
20260502042329 11 5 4.8 12.9 0.05 3.96 3.91 95 1017.4
20260502041832 11 355 6.4 14.5 0.08 3.96 3.91 95 1017.3
20260502041318 11 63 8.0 14.5 0.08 3.96 3.91 95 1017.3
20260502040820 11 35 8.0 16.1 0.08 3.96 3.91 95 1017.3
20260502040332 11 29 8.0 17.7 0.05 3.94 3.89 95 1017.3
20260502035841 11 45 9.7 17.7 0.08 3.94 3.89 95 1017.4
20260502035325 11 55 8.0 17.7 0.08 3.94 3.89 95 1017.4
20260502034849 11 360 8.0 19.3 0.08 3.94 3.89 95 1017.3
20260502034343 11 48 8.0 19.3 0.05 3.91 3.86 95 1017.3
20260502033818 11 67 9.7 20.9 0.08 3.91 3.86 95 1017.3
20260502033330 10 45 9.7 20.9 0.08 3.91 3.86 95 1017.4
20260502032833 10 46 14.5 20.9 0.08 3.91 3.86 95 1017.4
20260502032334 10 61 11.3 25.7 0.08 3.91 3.86 95 1017.4
20260502031820 10 53 6.4 25.7 0.08 3.89 3.84 95 1017.3
20260502031326 10 61 9.7 20.9 0.08 3.89 3.84 95 1017.2
20260502030900 10 60 8.0 22.5 0.08 3.89 3.84 95 1017.1
20260502030340 10 43 12.9 25.7 0.08 3.89 3.84 95 1017.2
20260502025825 10 44 11.3 27.4 0.08 3.86 3.81 95 1017.1
20260502025325 10 48 14.5 27.4 0.08 3.86 3.81 95 1016.9
20260502024829 10 45 11.3 20.9 0.08 3.86 3.81 95 1016.9
20260502024343 10 33 9.7 20.9 0.10 3.86 3.81 95 1016.7
20260502023844 10 65 8.0 20.9 0.08 3.84 3.78 95 1016.6
20260502023328 10 42 12.9 22.5 0.08 3.84 3.78 95 1016.5
20260502022854 10 64 12.9 32.2 0.08 3.84 3.78 95 1016.5
20260502022336 11 61 14.5 32.2 0.10 3.84 3.78 95 1016.3
20260502021822 11 31 14.5 27.4 0.08 3.81 3.76 95 1016.2
20260502021325 11 15 11.3 22.5 0.08 3.81 3.76 95 1016.0
20260502020835 11 5 12.9 32.2 0.10 3.81 3.76 95 1016.0
20260502020342 11 19 16.1 33.8 0.10 3.81 3.76 95 1015.8
20260502015829 11 41 17.7 33.8 0.08 3.78 3.73 95 1015.6
20260502015329 11 5 12.9 27.4 0.10 3.78 3.73 95 1015.8
20260502014850 11 11 14.5 25.7 0.10 3.78 3.73 95 1015.6
20260502014333 11 360 12.9 25.7 0.08 3.76 3.71 95 1015.6
20260502013844 11 61 14.5 24.1 0.10 3.76 3.71 95 1015.3
20260502013329 11 24 12.9 27.4 0.10 3.76 3.71 95 1015.2
20260502012832 11 50 16.1 27.4 0.08 3.73 3.68 95 1014.8
20260502012319 11 47 14.5 25.7 0.10 3.73 3.68 95 1014.8
20260502011825 11 15 11.3 20.9 0.10 3.73 3.68 95 1014.9
20260502011328 11 28 12.9 20.9 0.10 3.73 3.68 95 1015.3
20260502010834 11 32 11.3 24.1 0.10 3.71 3.66 95 1015.4
20260502010320 11 26 12.9 24.1 0.10 3.71 3.66 95 1015.3
20260502005829 11 63 14.5 27.4 0.10 3.71 3.66 95 1015.2
20260502005330 11 34 17.7 27.4 0.10 3.68 3.63 95 1015.0
20260502004843 12 30 16.1 27.4 0.10 3.68 3.63 95 1015.1
20260502004319 12 32 16.1 27.4 0.13 3.68 3.63 95 1015.2
20260502003831 12 25 14.5 27.4 0.10 3.66 3.61 95 1015.0
20260502003337 12 15 12.9 25.7 0.10 3.66 3.61 95 1014.7
20260502002900 12 28 11.3 25.7 0.13 3.66 3.61 95 1014.6
20260502002345 12 47 9.7 25.7 0.10 3.63 3.58 95 1014.5
20260502001835 12 46 12.9 22.5 0.10 3.63 3.58 95 1014.4
20260502001344 12 53 12.9 25.7 0.13 3.63 3.58 95 1014.7
20260502000826 12 17 16.1 25.7 0.10 3.61 3.56 95 1014.8
20260502000332 12 16 12.9 22.5 0.13 3.61 3.56 95 1015.1
20260501235833 12 17 8.0 17.7 0.13 3.61 3.56 95 1014.9
20260501235318 12 345 9.7 20.9 0.10 3.58 3.53 95 1014.8
20260501234850 12 14 12.9 22.5 0.13 3.58 3.53 95 1014.7
20260501234333 12 13 14.5 24.1 0.10 3.56 3.51 95 1014.7
20260501233839 12 39 14.5 22.5 0.13 3.56 3.51 95 1014.6
20260501233324 12 38 11.3 22.5 0.13 3.56 3.51 95 1014.7
20260501232852 12 351 12.9 29.0 0.10 3.53 3.48 95 1014.7
20260501232332 12 349 12.9 29.0 0.13 3.53 3.48 95 1014.4
20260501231837 12 12 12.9 22.5 0.10 3.51 3.45 95 1014.3
20260501231323 12 5 11.3 17.7 0.10 3.51 3.45 95 1014.4
20260501230825 12 351 8.0 20.9 0.13 3.51 3.45 95 1014.6
20260501230359 12 19 12.9 22.5 0.10 3.48 3.43 95 1014.2
20260501225842 12 16 8.0 22.5 0.13 3.48 3.43 95 1014.0
20260501225350 12 14 12.9 24.1 0.13 3.48 3.43 95 1013.8
20260501224832 12 47 12.9 27.4 0.13 3.45 3.40 95 1013.2
20260501224337 12 19 16.1 27.4 0.13 3.45 3.40 95 1012.8
20260501223822 12 32 11.3 27.4 0.13 3.43 3.38 95 1012.9
20260501223326 13 15 19.3 27.4 0.13 3.43 3.38 95 1012.9
20260501222831 13 342 16.1 25.7 0.15 3.43 3.38 95 1012.8
20260501222341 13 38 16.1 22.5 0.13 3.40 3.35 95 1012.8
20260501221819 13 30 9.7 19.3 0.15 3.40 3.35 95 1012.9
20260501221327 13 5 11.3 24.1 0.13 3.38 3.33 95 1012.9
20260501220853 13 53 11.3 24.1 0.15 3.38 3.33 95 1012.5
20260501220320 13 11 14.5 25.7 0.15 3.38 3.33 95 1012.2
20260501215823 13 5 14.5 25.7 0.15 3.35 3.30 95 1011.8
20260501215327 13 57 12.9 29.0 0.15 3.35 3.30 95 1011.6
20260501214842 13 336 14.5 29.0 0.15 3.33 3.28 95 1011.3
20260501214346 13 74 19.3 35.4 0.15 3.33 3.28 95 1011.0
20260501213830 13 42 22.5 35.4 0.15 3.30 3.25 95 1010.8
20260501213335 13 46 20.9 32.2 0.15 3.30 3.25 95 1010.8
20260501212822 13 18 14.5 29.0 0.15 3.28 3.23 95 1010.9
20260501212327 13 15 16.1 29.0 0.15 3.28 3.23 95 1011.3